This demonstration page uses our WeatherBlox Daily Observations layout. Learn more.

Left ArrowRight Arrow

Hourly Observations for February 6, 2017

Temp ( °F °C ) Dew Point ( °F °C ) Humidity (%) Winds ( mph kmh ) Pressure ( in mb ) Visibility ( mi km ) Precip ( " mm )
12:51 am 00:51 Clear 57 13.9 27 -2.8 32 32 NW 14 22 29.95 1014 10 16 N/A
1:51 am 01:51 Mostly Cloudy 56 13.3 27 -2.8 33 33 E 5 7 29.91 1013 10 16 N/A
2:51 am 02:51 Clear 50 10 29 -1.7 44 44 SSE 6 9 29.91 1013 10 16 N/A
3:51 am 03:51 Clear 46 7.8 29 -1.7 51 51 SSE 7 11 29.90 1013 10 16 N/A
4:51 am 04:51 Clear 44 6.7 28 -2.2 53 53 ENE 6 9 29.91 1013 10 16 N/A
5:51 am 05:51 Clear 42 5.6 29 -1.7 60 60 SE 5 7 29.95 1014 10 16 N/A
6:51 am 06:51 Clear 42 5.6 29 -1.7 60 60 N N/A 29.96 1015 10 16 N/A
7:51 am 07:51 Sunny 42 5.6 30 -1.1 62 62 NNW 7 11 29.99 1016 10 16 N/A
8:51 am 08:51 Sunny 48 8.9 31 -0.6 52 52 N N/A 29.99 1016 10 16 N/A
9:51 am 09:51 Sunny 55 12.8 30 -1.1 38 38 N 3 6 29.99 1016 10 16 N/A
10:51 am 10:51 Sunny 57 13.9 31 -0.6 37 37 ESE 3 6 29.98 1015 10 16 N/A
11:51 am 11:51 Sunny 63 17.2 28 -2.2 27 27 N N/A 29.98 1015 10 16 N/A
12:51 pm 12:51 Sunny 63 17.2 27 -2.8 26 26 W 8 13 29.93 1014 10 16 N/A
1:51 pm 13:51 Sunny 64 17.8 30 -1.1 28 28 WNW 9 15 29.92 1013 10 16 N/A
2:51 pm 14:51 Sunny 66 18.9 27 -2.8 23 23 NW 12 19 29.90 1012 10 16 N/A
3:51 pm 15:51 Sunny 67 19.4 25 -3.9 20 20 NW 15 24 29.90 1013 10 16 N/A
4:51 pm 16:51 Sunny 64 17.8 24 -4.4 22 22 NW 16 26 29.92 1013 10 16 N/A
5:51 pm 17:51 Sunny 61 16.1 22 -5.6 22 22 NW 8 13 29.93 1014 10 16 N/A
6:51 pm 18:51 Partly Cloudy 59 15 22 -5.6 24 24 NNW 16 26 29.95 1014 10 16 N/A
7:51 pm 19:51 Clear 54 12.2 24 -4.4 31 31 WSW 7 11 29.99 1016 10 16 N/A
8:51 pm 20:51 Clear 54 12.2 25 -3.9 33 33 WSW 3 6 29.99 1016 10 16 N/A
9:51 pm 21:51 Clear 50 10 27 -2.8 41 41 SW 5 7 30.00 1016 10 16 N/A
10:51 pm 22:51 Clear 49 9.4 27 -2.8 43 43 ESE 5 7 30.00 1016 10 16 N/A
11:51 pm 23:51 Clear 46 7.8 28 -2.2 50 50 S 5 7 30.01 1016 10 16 N/A

Powered by AerisWeather